McHenry, MD

8:41 AM EST on February 12, 2016 (GMT -0500)
Oakland

Weather History for K2G4 - August, 2013

Change the Weather History Date:

Thursday, August 1, 2013

  Actual Average (KMGW) Record (KMGW)
Temperature  
Mean Temperature 66 °F 73 °F  
Max Temperature 71 °F 83 °F 97 °F (1975)
Min Temperature 60 °F 63 °F 52 °F (1952)
Degree Days  
Heating Degree Days 0 0  
Month to date heating degree days 0  
Since 1 June heating degree days 34  
Since 1 July heating degree days 3  
Cooling Degree Days 0 8  
Month to date cooling degree days 8  
Year to date cooling degree days 492  
Since 1 June cooling degree days 425  
Growing Degree Days 16 (Base 50)    
Moisture  
Dew Point 63 °F    
Average Humidity 92    
Maximum Humidity 100    
Minimum Humidity 73    
Precipitation  
Precipitation 0.00 in 0.13 in 3.39 in (1973)
Month to date precipitation 0.13  
Year to date precipitation 26.05  
Sea Level Pressure  
Sea Level Pressure 30.00 in    
Wind  
Wind Speed 6 mph (West)    
Max Wind Speed 12 mph    
Max Gust Speed 17 mph    
Visibility 6 miles    
Events Fog    
T = Trace of Precipitation, MM = Missing Value Source: NWS Daily Summary

Daily Weather History Graph

Daily Weather History Graph

Search for Another Location

Airport or City:

Trip Planner

Search our weather history database for the weather conditions in past years. The results will help you decide how hot, cold, wet, or windy it might be!

Date:

Astronomy

Aug. 01, 2013 Rise Set
Actual Time 6:16 AM EDT 8:29 PM EDT
Civil Twilight 5:46 AM EDT 8:59 PM EDT
Nautical Twilight 5:09 AM EDT 9:36 PM EDT
Astronomical Twilight 4:29 AM EDT 10:16 PM EDT
Moon 1:52 AM EDT (8/1) 4:37 PM EDT (8/1)
Length of Visible Light 15h 12m
Length of Day
14h 12m
Waning Crescent, 23% of the Moon is Illuminated
Aug 1
Waning Crescent
Aug 6
New
Aug 14
First Quarter
Aug 20
Full
Aug 28
Last Quarter

Hourly Weather History & Observations

Time (EDT) Temp. Dew Point Humidity Pressure Visibility Wind Dir Wind Speed Gust Speed Precip Events Conditions
12:10 AM 60.8 °F - N/A% 30.06 in 7.0 mi SSE 5.8 mph - N/A   Overcast
12:30 AM 60.8 °F - N/A% 30.06 in 5.0 mi SSE 4.6 mph - N/A   Haze
12:50 AM 60.8 °F - N/A% 30.05 in 5.0 mi South 3.5 mph - N/A   Haze
1:10 AM 60.8 °F - N/A% 30.05 in 7.0 mi South 3.5 mph - N/A   Overcast
1:30 AM 60.8 °F - N/A% 30.04 in 10.0 mi SSW 4.6 mph - N/A   Overcast
1:50 AM 60.8 °F - N/A% 30.03 in 10.0 mi SSW 4.6 mph - N/A   Overcast
2:10 AM 60.8 °F - N/A% 30.02 in 10.0 mi SSW 4.6 mph - N/A   Overcast
2:30 AM 60.8 °F - N/A% 30.02 in 4.0 mi SSW 6.9 mph - N/A   Haze
2:50 AM 60.8 °F - N/A% 30.01 in 4.0 mi SW 6.9 mph - N/A   Haze
3:10 AM 60.8 °F - N/A% 30.01 in 2.5 mi SW 8.1 mph - N/A   Overcast
3:30 AM 60.8 °F - N/A% 30.00 in 0.8 mi SW 5.8 mph - N/A   Overcast
3:50 AM 60.8 °F - N/A% 30.00 in 1.0 mi SW 5.8 mph - N/A   Overcast
4:10 AM 60.8 °F - N/A% 29.99 in 2.0 mi WSW 5.8 mph - N/A   Overcast
4:30 AM 60.8 °F - N/A% 29.99 in 3.0 mi SW 3.5 mph - N/A   Overcast
4:50 AM 60.8 °F - N/A% 29.99 in 5.0 mi SW 5.8 mph - N/A   Haze
5:10 AM 60.8 °F - N/A% 29.98 in 3.0 mi SW 5.8 mph - N/A   Overcast
5:30 AM 60.8 °F - N/A% 29.98 in 2.0 mi SW 4.6 mph - N/A   Overcast
5:50 AM 60.8 °F - N/A% 29.99 in 1.8 mi WSW 5.8 mph - N/A   Overcast
6:10 AM 60.8 °F - N/A% 29.99 in 3.0 mi WSW 6.9 mph - N/A   Overcast
6:30 AM 60.8 °F - N/A% 29.99 in 1.8 mi WSW 5.8 mph - N/A   Overcast
6:50 AM 60.8 °F - N/A% 29.99 in 0.5 mi WSW 8.1 mph - N/A Fog Fog
7:10 AM 60.8 °F - N/A% 29.99 in 0.2 mi West 9.2 mph - N/A Fog Fog
7:30 AM 60.8 °F - N/A% 29.99 in 0.2 mi West 6.9 mph - N/A Fog Fog
7:50 AM 60.8 °F - N/A% 29.99 in 0.2 mi WSW 10.4 mph 16.1 mph N/A Fog Fog
8:10 AM 60.8 °F - N/A% 29.99 in 0.2 mi WSW 10.4 mph 16.1 mph N/A Fog Fog
8:30 AM 60.8 °F - N/A% 29.99 in 0.2 mi WSW 6.9 mph - N/A Fog Fog
8:50 AM 60.8 °F - N/A% 29.99 in 0.2 mi WSW 5.8 mph - N/A Fog Fog
9:10 AM 60.8 °F - N/A% 30.00 in 0.2 mi West 5.8 mph - N/A Fog Fog
9:30 AM 60.8 °F - N/A% 30.00 in 0.2 mi West 6.9 mph - N/A Fog Fog
9:50 AM 60.8 °F - N/A% 29.99 in 1.2 mi West 8.1 mph 16.1 mph N/A   Overcast
10:10 AM 60.8 °F - N/A% 30.00 in 2.0 mi West 9.2 mph - N/A   Overcast
10:30 AM 60.8 °F - N/A% 30.00 in 1.5 mi West 6.9 mph 16.1 mph N/A   Overcast
10:50 AM 60.8 °F - N/A% 30.00 in 2.0 mi West 8.1 mph - N/A   Overcast
11:10 AM 62.6 °F - N/A% 30.00 in 4.0 mi West 8.1 mph - N/A   Haze
11:30 AM 64.4 °F - N/A% 30.00 in 7.0 mi West 8.1 mph - N/A   Overcast
11:50 AM 62.6 °F 62.6 °F 100% 30.00 in 7.0 mi West 8.1 mph - N/A   Overcast
12:10 PM 62.6 °F 62.6 °F 100% 30.00 in 5.0 mi West 5.8 mph - N/A   Overcast
12:30 PM 66.2 °F 66.2 °F 100% 30.00 in 10.0 mi West 6.9 mph - N/A   Overcast
12:50 PM 66.2 °F 66.2 °F 100% 29.99 in 10.0 mi WNW 8.1 mph - N/A   Mostly Cloudy
1:10 PM 68.0 °F 64.4 °F 88% 29.99 in 10.0 mi West 10.4 mph - N/A   Mostly Cloudy
1:30 PM 68.0 °F 64.4 °F 88% 29.99 in 10.0 mi West 11.5 mph 17.3 mph N/A   Mostly Cloudy
1:50 PM 68.0 °F 62.6 °F 83% 29.99 in 10.0 mi West 6.9 mph - N/A   Mostly Cloudy
2:10 PM 69.8 °F 62.6 °F 78% 29.97 in 10.0 mi West 10.4 mph 17.3 mph N/A   Scattered Clouds
2:30 PM 71.6 °F 62.6 °F 73% 29.97 in 10.0 mi West 6.9 mph 17.3 mph N/A   Scattered Clouds
2:50 PM 71.6 °F 62.6 °F 73% 29.97 in 10.0 mi WNW 8.1 mph - N/A   Scattered Clouds
3:10 PM 68.0 °F 64.4 °F 88% 29.97 in 10.0 mi NW 6.9 mph - N/A   Mostly Cloudy
3:30 PM 69.8 °F 64.4 °F 83% 29.97 in 10.0 mi West 6.9 mph - N/A   Mostly Cloudy
3:50 PM 68.0 °F 62.6 °F 83% 29.97 in 10.0 mi West 8.1 mph 16.1 mph N/A   Scattered Clouds
4:10 PM 66.2 °F 64.4 °F 94% 29.97 in 10.0 mi NNW 5.8 mph - N/A   Mostly Cloudy
4:30 PM 64.4 °F 64.4 °F 100% 29.98 in 10.0 mi West 5.8 mph - N/A   Overcast
4:50 PM 64.4 °F 64.4 °F 100% 29.98 in 10.0 mi Calm Calm - N/A   Overcast
5:10 PM 68.0 °F 64.4 °F 88% 29.97 in 10.0 mi WNW 6.9 mph - N/A   Scattered Clouds
5:30 PM 68.0 °F 64.4 °F 88% 29.97 in 10.0 mi WNW 5.8 mph - N/A   Mostly Cloudy
5:50 PM 68.0 °F 64.4 °F 88% 29.97 in 10.0 mi West 5.8 mph - N/A   Mostly Cloudy
6:10 PM 66.2 °F 64.4 °F 94% 29.97 in 10.0 mi WNW 4.6 mph - N/A   Overcast
6:30 PM 68.0 °F 64.4 °F 88% 29.97 in 10.0 mi West 6.9 mph - N/A   Mostly Cloudy
6:50 PM 68.0 °F 64.4 °F 88% 29.99 in 10.0 mi NW 4.6 mph - N/A   Scattered Clouds
7:10 PM 66.2 °F 64.4 °F 94% 29.99 in 10.0 mi WNW 3.5 mph - N/A   Mostly Cloudy
7:30 PM 68.0 °F 62.6 °F 83% 29.99 in 10.0 mi NW 4.6 mph - N/A   Overcast
7:50 PM 66.2 °F 62.6 °F 88% 30.00 in 10.0 mi WNW 4.6 mph - N/A   Scattered Clouds
8:10 PM 64.4 °F 60.8 °F 88% 30.00 in 10.0 mi Calm Calm - N/A   Clear
8:30 PM 64.4 °F 62.6 °F 94% 30.00 in 10.0 mi WNW 3.5 mph - N/A   Scattered Clouds
8:50 PM 62.6 °F 62.6 °F 100% 30.01 in 10.0 mi West 3.5 mph - N/A   Scattered Clouds
9:10 PM 62.6 °F 62.6 °F 100% 30.01 in 10.0 mi West 4.6 mph - N/A   Clear
9:30 PM 62.6 °F 62.6 °F 100% 30.02 in 10.0 mi West 3.5 mph - N/A   Scattered Clouds
9:50 PM 62.6 °F 62.6 °F 100% 30.02 in 10.0 mi West 3.5 mph - N/A   Scattered Clouds
10:10 PM 62.6 °F 60.8 °F 94% 30.02 in 10.0 mi West 4.6 mph - N/A   Clear
10:30 PM 62.6 °F 60.8 °F 94% 30.02 in 10.0 mi West 4.6 mph - N/A   Scattered Clouds
10:50 PM 60.8 °F 60.8 °F 100% 30.02 in 10.0 mi WSW 3.5 mph - N/A   Clear
11:10 PM 60.8 °F 60.8 °F 100% 30.02 in 10.0 mi Calm Calm - N/A   Clear
11:30 PM 60.8 °F 60.8 °F 100% 30.02 in 10.0 mi West 5.8 mph - N/A   Clear
11:50 PM 60.8 °F 60.8 °F 100% 30.02 in 10.0 mi West 5.8 mph - N/A   Clear